Theta_e
331 332 330 329 328 327 326 327 326 329 327 323 321 317 322 324 323 322 322 322 321 320 320 321 321 321 319 317 311 308 310 309 308 307 305 304 301 300 301 298 296 293 291
332 331 329 329 328 328 325 326 325 327 328 323 320 314 320 323 323 323 322 322 322 321 321 322 321 320 316 310 309 310 311 310 309 306 302 303 300 299 298 295 292 290 290
330 331 328 328 329 328 329 327 326 328 328 324 321 317 318 324 323 323 323 323 323 322 322 321 319 315 310 310 312 311 311 306 298 296 302 303 303 300 297 293 291 289 289
328 332 329 328 328 329 329 327 326 327 327 323 322 320 322 322 323 323 324 324 323 321 319 315 310 308 312 311 310 302 296 296 295 294 294 294 295 298 298 295 292 288 288
325 331 329 328 329 329 329 327 325 324 325 324 323 323 323 323 323 323 324 323 320 316 312 307 309 312 311 305 299 296 295 295 295 294 293 292 291 291 292 295 291 289 288
322 330 329 329 328 329 328 327 326 325 325 325 324 325 324 324 324 323 323 320 314 307 306 310 312 309 304 298 295 295 295 294 294 293 292 291 291 290 290 289 289 287 288
322 327 329 328 328 328 328 328 327 326 326 326 326 326 326 325 325 324 321 313 306 307 310 310 307 302 298 295 294 294 294 293 292 292 291 290 290 289 288 288 287 286 286
324 328 329 327 327 327 328 328 327 325 326 327 328 327 327 326 324 321 312 307 309 310 308 307 302 297 293 294 294 293 292 292 292 291 290 290 289 288 287 286 285 285 286
325 329 327 327 327 327 327 327 326 325 326 327 328 327 324 321 318 309 308 309 309 307 304 302 295 293 294 293 292 291 292 291 290 290 289 288 287 287 286 285 284 283 283
323 327 325 325 325 327 327 327 326 326 325 326 326 323 317 311 309 309 308 307 305 305 301 294 293 292 292 291 291 291 290 290 289 288 287 287 286 285 284 284 283 282 281
323 324 320 320 320 327 327 325 326 325 324 321 318 313 310 308 307 307 306 305 302 296 295 293 291 291 290 291 290 290 289 288 287 287 286 285 284 284 283 283 282 281 280
319 319 318 318 316 321 324 323 323 323 321 311 308 308 307 307 307 305 302 301 297 296 292 291 290 290 290 290 289 288 288 287 286 286 285 284 284 283 282 281 280 280 279
308 312 315 314 313 315 317 320 318 318 311 310 307 306 305 305 304 302 302 299 296 291 290 290 290 290 289 288 288 287 287 286 286 285 284 284 283 282 281 281 280 279 279
301 303 306 308 308 310 310 310 309 309 309 307 307 305 304 303 302 300 297 293 290 290 290 289 289 288 288 287 288 287 286 286 285 284 284 283 282 281 280 280 279 278 278
299 299 299 301 303 304 305 306 305 304 307 306 305 304 302 300 299 294 292 290 290 290 289 289 289 288 288 288 287 286 285 284 284 284 283 283 282 281 280 279 278 277 278
299 299 300 300 301 303 303 304 305 305 306 305 304 302 301 299 293 291 290 289 289 289 289 289 288 288 288 287 286 285 285 285 284 283 283 283 282 281 279 277 277 277 278
298 298 300 300 301 302 304 306 305 304 304 302 302 301 297 292 290 290 290 289 289 289 289 289 288 288 287 286 286 285 285 284 284 284 282 281 280 279 277 276 277 278 277
298 299 300 301 303 305 306 306 306 304 303 303 300 294 290 290 290 290 289 289 289 289 289 288 288 287 287 287 286 285 285 285 284 282 281 280 279 277 277 277 277 276 275
300 300 303 304 304 305 306 306 304 304 303 301 291 290 290 290 290 289 289 289 289 289 288 288 288 287 286 286 285 285 285 282 281 281 280 279 279 278 276 277 276 275 274
302 302 303 304 304 303 304 303 302 302 296 291 290 290 290 289 289 289 289 288 290 291 288 287 286 286 285 285 285 283 282 281 280 279 280 280 279 277 276 275 275 274 273
303 304 304 303 303 302 302 300 297 292 291 290 290 289 289 288 289 289 291 291 292 288 288 286 286 285 285 284 283 282 281 281 280 281 280 278 276 276 275 275 274 273 271
301 302 303 303 303 303 301 298 294 291 290 289 289 288 288 288 292 294 295 294 290 288 286 286 285 284 283 283 282 282 283 281 281 279 278 277 276 275 274 274 273 272 272
301 301 303 303 302 301 301 301 296 292 289 289 288 288 287 290 294 294 294 293 288 286 285 285 284 283 283 283 283 283 283 281 280 278 277 276 275 274 273 272 272 271 271
301 300 301 302 301 300 299 299 298 294 297 289 288 288 287 289 291 291 293 288 285 285 285 284 284 283 284 284 283 281 281 279 278 277 276 274 273 273 272 271 271 270 269
303 302 302 301 301 299 299 298 298 297 297 292 292 291 290 290 292 293 288 285 285 284 284 284 284 284 283 282 281 280 279 278 277 275 274 273 272 271 271 270 269 268 268
301 302 302 301 300 300 299 298 297 297 296 295 294 293 292 292 290 286 285 285 284 284 285 285 285 283 282 281 280 278 277 275 274 273 272 271 271 270 269 269 268 268 267
Wind_Speed
25 28 32 31 33 31 30 34 37 35 31 31 31 31 30 25 22 21 20 18 16 14 17 17 17 16 14 11 8 5 4 4 5 6 4 4 3 2 2 3 5 6 7
27 28 32 39 38 37 36 34 33 38 35 34 33 30 31 28 25 23 23 22 21 20 20 19 18 15 11 8 6 6 7 7 8 6 3 2 1 3 2 3 4 6 9
29 29 32 38 38 37 37 34 35 38 37 35 32 34 32 29 27 25 26 25 24 23 21 19 16 13 10 9 8 8 10 6 4 4 6 4 1 4 5 3 3 6 8
29 32 32 36 38 38 37 36 38 40 39 37 38 33 33 30 30 29 29 28 27 24 21 16 13 11 8 5 5 2 2 3 3 2 3 4 4 3 3 6 6 6 9
36 30 36 36 39 40 40 40 40 39 38 39 34 30 33 34 31 33 32 29 27 23 19 16 12 8 5 4 3 3 2 2 1 1 2 2 1 1 2 1 1 8 11
42 34 38 36 38 40 40 40 39 39 39 35 35 35 35 35 34 34 32 30 27 21 18 14 11 11 11 7 3 3 3 3 2 2 3 3 3 5 3 1 6 8 9
40 42 40 39 39 41 43 41 42 43 41 37 38 40 38 39 38 35 35 32 25 21 17 14 13 12 8 8 7 5 4 3 3 4 4 6 6 6 6 7 8 9 9
36 40 43 43 47 50 48 49 47 41 40 40 38 38 41 42 39 35 31 25 20 20 16 16 14 11 11 9 7 5 4 4 4 5 5 5 6 7 7 8 10 10 6
33 36 45 48 52 53 52 49 45 40 38 37 38 40 40 38 34 30 26 24 23 20 18 17 13 14 11 8 6 5 4 4 4 4 5 5 6 7 8 9 10 11 7
31 39 42 48 51 49 48 45 40 39 38 37 38 38 35 28 27 27 28 26 23 20 18 15 14 12 10 8 6 5 4 4 4 4 5 7 8 9 11 12 13 13 12
25 33 35 39 44 47 46 42 41 37 35 33 34 31 28 33 32 32 28 24 21 18 16 14 13 11 9 7 5 4 3 3 4 6 7 9 11 12 13 14 15 14 14
29 34 36 39 40 44 45 43 40 36 33 28 25 29 31 34 33 30 26 24 21 18 17 15 12 10 7 5 4 3 3 4 5 6 9 11 12 13 13 14 15 16 17
25 32 35 36 39 40 40 40 35 32 28 27 31 37 36 35 33 27 26 21 18 19 17 14 10 8 7 5 4 3 2 4 6 8 10 11 13 14 14 16 18 18 18
17 25 32 35 35 36 36 35 31 32 34 38 38 38 37 30 28 26 22 20 18 16 14 12 9 7 5 3 2 2 3 5 7 9 10 12 14 15 17 18 19 18 18
18 20 28 34 34 35 34 36 40 43 45 42 41 38 32 27 25 23 21 20 18 15 12 10 7 5 3 1 1 3 5 6 8 10 12 14 16 18 19 19 19 18 17
19 22 27 31 35 38 42 44 43 40 40 40 37 30 29 27 23 23 22 19 16 13 10 8 5 3 1 1 3 4 6 8 9 11 14 17 19 21 20 17 17 16 18
20 25 29 32 36 39 41 41 39 38 37 30 29 30 26 26 25 22 19 17 14 11 8 5 3 2 1 2 4 6 8 9 11 14 16 17 19 19 20 19 14 18 23
21 26 32 37 38 37 37 37 37 37 35 33 29 28 27 25 22 19 17 15 12 9 6 3 3 3 4 6 7 7 9 12 14 15 16 18 18 18 20 18 19 20 20
20 28 30 31 32 32 33 33 36 35 31 25 27 26 24 21 19 17 15 12 10 6 3 2 3 4 6 8 9 11 12 13 15 17 17 17 19 18 15 16 19 23 25
19 24 25 26 26 28 29 31 32 31 28 27 26 23 21 19 18 15 13 11 7 4 3 3 4 6 7 10 12 13 13 14 16 17 19 22 21 16 12 19 24 26 25
17 18 19 21 23 25 26 27 28 27 25 23 22 22 20 18 15 14 11 8 4 2 4 4 5 8 9 11 13 13 14 15 17 19 19 18 19 18 19 22 25 27 26
14 15 18 18 19 20 21 25 25 22 21 22 21 20 19 17 15 11 6 3 3 4 4 6 7 8 9 11 13 15 17 17 19 18 18 20 21 22 23 24 26 27 28
13 13 16 19 18 17 17 21 24 21 20 19 19 18 18 16 12 6 0 2 1 4 5 6 8 9 10 11 16 17 18 19 18 17 19 20 21 22 25 24 24 25 27
15 13 13 15 17 15 16 15 20 21 19 18 16 15 14 12 11 7 3 1 3 5 6 7 8 10 12 14 16 18 19 18 19 20 20 21 23 23 23 24 24 25 26
16 14 13 13 14 14 13 13 14 15 17 19 18 18 17 14 8 4 2 3 5 6 6 8 9 12 13 15 17 19 19 20 19 20 20 21 21 22 23 24 25 25 25
15 14 13 13 15 15 14 14 12 10 10 10 11 11 10 7 4 4 6 5 6 7 8 10 12 13 14 17 18 18 19 20 22 20 21 20 21 22 24 25 25 24 25
Wind_Direction
225 215 205 205 200 200 199 206 204 195 192 197 198 203 204 201 205 208 213 218 220 224 221 230 240 244 249 253 255 230 209 239 256 256 259 269 262 274 300 302 315 330 337
219 210 208 210 207 200 205 204 203 200 199 202 208 210 202 198 207 213 215 218 222 225 226 234 240 243 244 237 213 240 261 273 271 261 287 210 271 287 242 281 309 333 331
217 210 207 206 206 204 202 199 198 199 200 208 206 204 205 203 205 213 219 218 222 226 226 231 231 231 221 239 255 262 273 263 226 217 190 234 188 189 295 262 297 328 332
253 207 210 206 206 202 200 194 197 200 203 206 210 212 206 205 211 216 217 218 218 217 216 214 206 206 235 243 266 230 215 205 207 179 173 211 214 185 202 300 312 323 324
242 211 210 207 204 201 200 199 198 201 202 210 209 210 210 212 216 218 217 214 214 209 203 189 196 208 202 135 151 179 172 189 182 161 167 145 126 128 180 129 335 333 319
226 216 214 206 203 200 199 198 195 200 210 208 209 213 217 218 220 219 217 209 205 190 181 194 186 158 135 110 180 169 153 147 129 96 67 53 44 25 21 8 308 313 294
223 213 201 201 197 195 196 196 198 199 206 209 211 216 220 224 222 221 212 200 184 180 184 165 148 111 119 168 171 164 140 123 95 64 41 35 22 13 1 354 329 328 310
222 207 197 194 196 197 195 200 201 203 211 213 215 220 225 224 220 212 197 176 182 173 164 153 115 127 158 158 160 146 118 87 56 41 29 19 17 7 358 352 342 340 317
223 202 197 197 198 199 202 201 202 204 210 214 217 219 220 219 207 184 172 176 171 155 137 120 142 157 163 150 141 125 98 73 48 35 26 19 12 359 355 352 348 342 322
233 201 196 200 203 200 199 200 202 206 208 213 214 214 211 198 174 168 166 161 144 133 126 152 158 156 150 145 130 107 80 56 35 27 16 9 2 357 353 347 341 332 322
215 182 188 196 201 195 191 194 198 205 206 207 208 206 187 170 162 155 151 139 130 134 143 156 158 152 145 137 117 98 76 52 30 13 5 2 356 351 346 340 333 328 319
171 178 186 194 193 188 187 190 191 196 203 193 179 165 155 153 149 142 139 134 145 151 156 158 158 149 139 130 122 97 61 32 12 0 358 354 345 338 335 330 326 321 318
158 174 178 183 182 179 177 178 186 185 175 162 160 152 153 146 143 144 136 144 162 157 155 159 152 143 140 140 116 75 28 3 357 354 347 338 331 328 326 323 323 320 311
130 152 168 176 175 171 171 167 159 162 153 153 149 148 144 138 139 138 145 157 155 154 156 152 149 141 144 130 70 6 353 355 346 338 333 328 322 322 323 321 317 310 310
117 127 139 156 157 155 151 149 150 149 143 146 147 141 144 144 134 148 155 154 155 156 154 148 150 154 146 127 333 346 351 339 330 325 321 319 321 320 316 312 309 309 317
122 134 137 142 145 141 146 140 140 140 141 142 139 144 145 139 154 157 157 155 153 151 151 154 160 159 186 317 333 328 327 321 316 315 321 322 320 316 309 310 317 328 307
110 126 131 134 135 139 137 133 137 138 139 146 148 143 144 155 157 157 154 151 149 151 155 164 185 229 279 310 317 315 310 305 316 321 317 313 311 313 314 325 327 301 308
115 127 132 134 136 136 135 137 143 146 147 145 146 150 152 157 155 154 151 151 148 153 163 181 231 282 310 316 315 304 304 316 316 310 310 309 310 319 323 324 313 314 315
114 122 125 129 137 145 144 149 147 147 147 148 149 150 155 155 152 152 150 147 151 155 184 232 278 301 304 307 305 317 318 313 310 308 310 316 318 318 331 313 306 311 316
124 138 140 139 142 141 143 144 145 147 148 149 151 152 152 154 150 146 145 151 154 176 232 273 295 307 301 305 315 321 311 303 308 320 319 320 318 322 308 293 304 312 317
112 132 132 134 136 141 145 143 145 147 147 150 153 153 152 151 146 145 146 156 161 199 275 292 298 303 307 313 310 306 311 321 317 317 315 311 302 306 304 310 316 313 311
107 130 140 138 138 144 146 143 144 150 154 154 155 154 154 151 142 138 138 143 141 256 284 291 299 308 311 306 306 319 325 319 316 314 308 304 308 310 312 312 311 311 315
105 121 140 147 145 146 152 150 154 157 152 159 157 154 152 151 138 144 274 181 243 270 286 302 304 304 308 316 320 322 322 317 312 311 311 310 311 311 311 313 313 315 317
104 109 126 142 146 149 149 161 161 165 170 160 152 155 158 167 190 217 215 178 245 272 278 292 301 313 321 323 321 320 323 321 318 317 314 313 312 314 316 318 318 318 319
104 109 117 133 141 141 147 153 163 169 167 173 177 183 186 194 208 193 195 229 255 269 291 305 318 321 322 320 321 323 321 317 315 311 310 313 316 318 316 316 318 322 325
104 104 112 125 131 134 140 145 154 152 158 159 162 172 171 182 169 199 226 239 262 291 316 325 322 321 321 326 325 320 314 310 312 316 318 320 317 315 317 320 323 325 324